Regional Weather Roundup
Issued by NWS

Home | Current Version | Previous Version | Text Only | Print | Product List | Glossary On
Versions: 1 2 3 4 5 6 7 8 9 10 11 12 13 14 15 16 17 18 19 20 21 22 23 24 25 26 27 28 29 30 31 32 33 34 35 36 37 38 39 40 41 42 43 44 45 46 47 48 49 50
000
ASUS46 KPQR 200110
RWROR

OREGON REGIONAL WEATHER ROUNDUP
NATIONAL WEATHER SERVICE PORTLAND OR
500 PM PST FRI DEC 19 2014

NOTE: "FAIR" INDICATES FEW OR NO CLOUDS BELOW 12,000 FEET WITH
NO SIGNIFICANT WEATHER AND/OR OBSTRUCTIONS TO VISIBILITY.

ORZ001>013-200200-
NORTHWEST OREGON


CITY           SKY/WX    TMP DP  RH WIND       PRES   REMARKS
ASTORIA        MOCLDY    47  42  83 SE7       29.93R
NEWPORT        RAIN      48  46  93 SE7       29.98S
PORTLAND       CLOUDY    50  43  77 E8        29.99F
VANCOUVER WA   CLOUDY    50  42  74 SE6       29.98F
SCAPPOOSE      CLOUDY    48  43  82 CALM      29.97F
HILLSBORO      CLOUDY    48  45  89 S6        29.97F
AURORA         CLOUDY    48  43  82 S5        29.99F
MCMINNVILLE    CLOUDY    49  44  83 SE6       29.98F
SALEM          CLOUDY    48  45  89 S5        29.97F
CORVALLIS      CLOUDY    50  45  81 CALM      29.99F
EUGENE         LGT RAIN  49  44  83 S8        30.00S
$$

ORZ021-028-200200-
SOUTHWEST OREGON


CITY           SKY/WX    TMP DP  RH WIND       PRES   REMARKS
NORTH BEND     MOCLDY    48  46  93 S6        30.00F
BROOKINGS      CLOUDY    55  51  86 VRB6      30.05F
ROSEBURG       LGT RAIN  52  43  71 S3        30.00F
SEXTON SUMMIT  FOG       37  37 100 S13       29.97F VSB 1/4 WCI  29
MEDFORD        MOCLDY    47  44  90 CALM      30.04S
$$

ORZ014>016-041-200200-
COLUMBIA GORGE


CITY           SKY/WX    TMP DP  RH WIND       PRES   REMARKS
TROUTDALE      CLOUDY    48  40  73 E6        29.98F
THE DALLES     MOCLDY    44  40  85 SW5       30.02R
$$

ORZ029>031-041-044-049-050-061>064-502-503-505>511-200200-
EASTERN OREGON


CITY           SKY/WX    TMP DP  RH WIND       PRES   REMARKS
REDMOND        MOCLDY    37  30  75 E3        29.99S
BEND           MOCLDY    41  30  65 S6        30.00S
PRINEVILLE     CLOUDY    41  32  70 S5        30.00S
KLAMATH FALLS  MOCLDY    42  33  70 CALM      30.02R
LAKEVIEW       CLOUDY    37  34  87 S12       30.05R WCI  30
HERMISTON      MOCLDY    44  36  73 S7        30.02R
PENDLETON      PTCLDY    42  39  89 CALM      30.02R
JOHN DAY       CLOUDY    40  33  75 S12       30.02R WCI  34
MEACHAM        MOCLDY    33  31  92 CALM      30.00R
LA GRANDE      PTCLDY    39  28  65 S6        30.01R WCI  35
BAKER CITY     MOCLDY    35  34  96 SW3       30.02S
BURNS          MOCLDY    36  31  82 W5        30.03R WCI  32
ROME             N/A     40  32  73 SE10      30.03R WCI  33
ONTARIO        MOCLDY    42  38  85 E3        30.07R
$$



USA.gov is the U.S. government's official web portal to all federal, state and local government web resources and services.